| time (UTC) | temp F | wind direction | speed MPH | gust MPH | rain 1hr in | rain 24hr in | rain mn in | humidity % | barometer mb |
| 20260505124631 | 64 | 243 | 2.0 | 2.0 | 0.00 | 0.00 | 0.00 | 72 | 1016.7 |
| 20260505124127 | 64 | 201 | 1.0 | 1.0 | 0.00 | 0.00 | 0.00 | 73 | 1016.7 |
| 20260505123623 | 63 | 202 | 0.0 | 1.0 | 0.00 | 0.00 | 0.00 | 73 | 1016.5 |
| 20260505123120 | 62 | 182 | 1.0 | 1.0 | 0.00 | 0.00 | 0.00 | 75 | 1016.7 |
| 20260505122617 | 62 | 231 | 1.0 | 1.0 | 0.00 | 0.00 | 0.00 | 75 | 1016.9 |
| 20260505122114 | 61 | 195 | 0.0 | 1.0 | 0.00 | 0.00 | 0.00 | 76 | 1017.0 |
| 20260505121610 | 60 | 193 | 0.0 | 0.0 | 0.00 | 0.00 | 0.00 | 78 | 1017.1 |
| 20260505121107 | 60 | 197 | 0.0 | 0.0 | 0.00 | 0.00 | 0.00 | 79 | 1016.8 |
| 20260505120604 | 60 | 174 | 0.0 | 0.0 | 0.00 | 0.00 | 0.00 | 79 | 1017.0 |
| 20260505120100 | 59 | 173 | 0.0 | 0.0 | 0.00 | 0.00 | 0.00 | 82 | 1016.8 |
| 20260505115554 | 58 | 173 | 0.0 | 0.0 | 0.00 | 0.00 | 0.00 | 86 | 1016.8 |
| 20260505115052 | 56 | 173 | 1.0 | 1.0 | 0.00 | 0.00 | 0.00 | 90 | 1016.8 |
| 20260505114549 | 55 | 175 | 0.0 | 0.0 | 0.00 | 0.00 | 0.00 | 92 | 1016.7 |
| 20260505114045 | 54 | 177 | 0.0 | 0.0 | 0.00 | 0.00 | 0.00 | 93 | 1016.8 |
| 20260505113541 | 54 | 177 | 0.0 | 0.0 | 0.00 | 0.00 | 0.00 | 93 | 1016.7 |
| 20260505113038 | 53 | 177 | 0.0 | 0.0 | 0.00 | 0.00 | 0.00 | 93 | 1016.6 |
| 20260505112534 | 53 | 177 | 0.0 | 0.0 | 0.00 | 0.00 | 0.00 | 93 | 1016.5 |
| 20260505112032 | 53 | 177 | 0.0 | 0.0 | 0.00 | 0.00 | 0.00 | 93 | 1016.5 |
| 20260505111526 | 52 | 177 | 0.0 | 0.0 | 0.00 | 0.00 | 0.00 | 93 | 1016.4 |
| 20260505111023 | 52 | 179 | 0.0 | 0.0 | 0.00 | 0.00 | 0.00 | 93 | 1016.3 |
| 20260505110519 | 51 | 180 | 0.0 | 0.0 | 0.00 | 0.00 | 0.00 | 93 | 1016.2 |
| 20260505101952 | 50 | 181 | 0.0 | 0.0 | 0.00 | 0.00 | 0.00 | 91 | 1015.7 |
| 20260505101450 | 50 | 181 | 0.0 | 0.0 | 0.00 | 0.00 | 0.00 | 91 | 1015.7 |
| 20260505100946 | 50 | 181 | 0.0 | 0.0 | 0.00 | 0.00 | 0.00 | 90 | 1015.6 |
| 20260505100443 | 51 | 181 | 0.0 | 0.0 | 0.00 | 0.00 | 0.00 | 90 | 1015.4 |
| 20260505095939 | 50 | 181 | 0.0 | 0.0 | 0.00 | 0.00 | 0.00 | 90 | 1015.6 |
| 20260505095436 | 50 | 181 | 0.0 | 0.0 | 0.00 | 0.00 | 0.00 | 89 | 1015.4 |
| 20260505094932 | 51 | 181 | 0.0 | 0.0 | 0.00 | 0.00 | 0.00 | 89 | 1015.5 |
| 20260505094429 | 51 | 181 | 0.0 | 0.0 | 0.00 | 0.00 | 0.00 | 89 | 1015.4 |
| 20260505093925 | 51 | 181 | 0.0 | 0.0 | 0.00 | 0.00 | 0.00 | 88 | 1015.6 |
| 20260505093422 | 51 | 181 | 0.0 | 0.0 | 0.00 | 0.00 | 0.00 | 88 | 1015.6 |
| 20260505092919 | 52 | 181 | 0.0 | 0.0 | 0.00 | 0.00 | 0.00 | 88 | 1015.3 |
| 20260505092417 | 52 | 181 | 0.0 | 0.0 | 0.00 | 0.00 | 0.00 | 87 | 1015.2 |
| 20260505091914 | 52 | 181 | 0.0 | 0.0 | 0.00 | 0.00 | 0.00 | 87 | 1015.4 |
| 20260505091412 | 52 | 181 | 0.0 | 0.0 | 0.00 | 0.00 | 0.00 | 86 | 1015.4 |
| 20260505090910 | 52 | 181 | 0.0 | 0.0 | 0.00 | 0.00 | 0.00 | 86 | 1015.3 |
| 20260505090408 | 53 | 181 | 0.0 | 0.0 | 0.00 | 0.00 | 0.00 | 85 | 1015.4 |
| 20260505085905 | 53 | 181 | 0.0 | 0.0 | 0.00 | 0.00 | 0.00 | 84 | 1015.3 |
| 20260505085403 | 53 | 181 | 0.0 | 0.0 | 0.00 | 0.00 | 0.00 | 84 | 1015.2 |
| 20260505084901 | 54 | 181 | 0.0 | 0.0 | 0.00 | 0.00 | 0.00 | 84 | 1015.3 |
| 20260505084359 | 54 | 181 | 0.0 | 0.0 | 0.00 | 0.00 | 0.00 | 83 | 1015.1 |
| 20260505083856 | 54 | 181 | 0.0 | 0.0 | 0.00 | 0.00 | 0.00 | 82 | 1015.3 |
| 20260505083354 | 55 | 181 | 0.0 | 0.0 | 0.00 | 0.00 | 0.00 | 81 | 1015.1 |
| 20260505082849 | 55 | 180 | 0.0 | 0.0 | 0.00 | 0.00 | 0.00 | 81 | 1014.9 |
| 20260505082346 | 55 | 184 | 0.0 | 0.0 | 0.00 | 0.00 | 0.00 | 81 | 1015.3 |
| 20260505081842 | 55 | 184 | 0.0 | 0.0 | 0.00 | 0.00 | 0.00 | 81 | 1015.1 |
| 20260505081339 | 55 | 184 | 0.0 | 0.0 | 0.00 | 0.00 | 0.00 | 80 | 1015.0 |
| 20260505080836 | 55 | 184 | 0.0 | 0.0 | 0.00 | 0.00 | 0.00 | 79 | 1014.9 |
| 20260505080332 | 56 | 184 | 0.0 | 0.0 | 0.00 | 0.00 | 0.00 | 79 | 1014.8 |
| 20260505075827 | 56 | 184 | 0.0 | 0.0 | 0.00 | 0.00 | 0.00 | 79 | 1014.8 |
| 20260505075325 | 56 | 183 | 0.0 | 0.0 | 0.00 | 0.00 | 0.00 | 79 | 1014.9 |
| 20260505074822 | 56 | 198 | 0.0 | 0.0 | 0.00 | 0.00 | 0.00 | 78 | 1014.9 |
| 20260505074319 | 56 | 200 | 1.0 | 1.0 | 0.00 | 0.00 | 0.00 | 78 | 1014.9 |
| 20260505073816 | 56 | 196 | 0.0 | 0.0 | 0.00 | 0.00 | 0.00 | 78 | 1014.7 |
| 20260505073314 | 56 | 191 | 0.0 | 0.0 | 0.00 | 0.00 | 0.00 | 77 | 1014.7 |
| 20260505072811 | 57 | 191 | 0.0 | 0.0 | 0.00 | 0.00 | 0.00 | 77 | 1014.9 |
| 20260505072307 | 57 | 187 | 0.0 | 0.0 | 0.00 | 0.00 | 0.00 | 77 | 1014.9 |
| 20260505071803 | 57 | 195 | 0.0 | 0.0 | 0.00 | 0.00 | 0.00 | 77 | 1014.7 |
| 20260505071300 | 57 | 191 | 0.0 | 0.0 | 0.00 | 0.00 | 0.00 | 77 | 1014.8 |
| 20260505070758 | 57 | 191 | 0.0 | 0.0 | 0.00 | 0.00 | 0.00 | 77 | 1014.7 |
| 20260505070254 | 57 | 184 | 0.0 | 0.0 | 0.00 | 0.00 | 0.00 | 77 | 1014.7 |
| 20260505065749 | 57 | 184 | 0.0 | 0.0 | 0.00 | 0.00 | 0.00 | 76 | 1014.8 |
| 20260505065246 | 57 | 187 | 0.0 | 0.0 | 0.00 | 0.00 | 0.00 | 76 | 1014.7 |
| 20260505064743 | 58 | 188 | 0.0 | 0.0 | 0.00 | 0.00 | 0.00 | 75 | 1014.7 |
| 20260505064241 | 58 | 186 | 0.0 | 0.0 | 0.00 | 0.00 | 0.00 | 75 | 1014.7 |
| 20260505063738 | 58 | 187 | 0.0 | 0.0 | 0.00 | 0.00 | 0.00 | 74 | 1014.7 |
| 20260505063234 | 59 | 187 | 0.0 | 0.0 | 0.00 | 0.00 | 0.00 | 74 | 1014.6 |
| 20260505062730 | 59 | 186 | 0.0 | 0.0 | 0.00 | 0.00 | 0.00 | 73 | 1014.9 |
| 20260505062228 | 59 | 105 | 0.0 | 1.0 | 0.00 | 0.00 | 0.00 | 73 | 1014.6 |
| 20260505061725 | 59 | 182 | 1.0 | 1.0 | 0.00 | 0.00 | 0.00 | 74 | 1014.8 |
| 20260505061223 | 59 | 189 | 0.0 | 0.0 | 0.00 | 0.00 | 0.00 | 74 | 1014.9 |
| 20260505060720 | 59 | 198 | 0.0 | 0.0 | 0.00 | 0.00 | 0.00 | 73 | 1014.8 |
| 20260505060217 | 59 | 206 | 0.0 | 0.0 | 0.00 | 0.00 | 0.00 | 73 | 1014.6 |
| 20260505055712 | 60 | 214 | 0.0 | 1.0 | 0.00 | 0.00 | 0.00 | 72 | 1014.8 |
| 20260505055209 | 60 | 187 | 0.0 | 0.0 | 0.00 | 0.00 | 0.00 | 72 | 1014.7 |
| 20260505054707 | 60 | 201 | 0.0 | 1.0 | 0.00 | 0.00 | 0.00 | 71 | 1014.8 |
| 20260505054204 | 60 | 187 | 0.0 | 0.0 | 0.00 | 0.00 | 0.00 | 71 | 1014.7 |
| 20260505053702 | 60 | 211 | 0.0 | 0.0 | 0.00 | 0.00 | 0.00 | 70 | 1014.9 |
| 20260505053158 | 60 | 190 | 0.0 | 0.0 | 0.00 | 0.00 | 0.00 | 71 | 1014.8 |
| 20260505052655 | 60 | 221 | 2.0 | 2.0 | 0.00 | 0.00 | 0.00 | 72 | 1014.8 |
| 20260505052153 | 60 | 193 | 0.0 | 0.0 | 0.00 | 0.00 | 0.00 | 72 | 1014.8 |
| 20260505051650 | 61 | 202 | 0.0 | 1.0 | 0.00 | 0.00 | 0.00 | 72 | 1015.0 |
| 20260505051148 | 61 | 190 | 0.0 | 0.0 | 0.00 | 0.00 | 0.00 | 71 | 1015.0 |
| 20260505050645 | 61 | 213 | 1.0 | 1.0 | 0.00 | 0.00 | 0.00 | 71 | 1015.1 |
| 20260505050143 | 61 | 95 | 0.0 | 1.0 | 0.00 | 0.00 | 0.00 | 70 | 1015.1 |
| 20260505041613 | 62 | 198 | 1.0 | 2.0 | 0.00 | 0.00 | 0.00 | 69 | 1014.8 |
| 20260505041110 | 62 | 167 | 1.0 | 1.0 | 0.00 | 0.00 | 0.00 | 68 | 1014.8 |
| 20260505040607 | 63 | 203 | 0.0 | 0.0 | 0.00 | 0.00 | 0.00 | 68 | 1014.8 |
| 20260505040104 | 63 | 184 | 1.0 | 1.0 | 0.00 | 0.00 | 0.00 | 68 | 1014.9 |
| 20260505035601 | 63 | 198 | 0.0 | 0.0 | 0.00 | 0.00 | 0.00 | 67 | 1014.8 |
| 20260505035057 | 63 | 172 | 1.0 | 1.0 | 0.00 | 0.00 | 0.00 | 67 | 1015.0 |
| 20260505034554 | 63 | 222 | 1.0 | 1.0 | 0.00 | 0.00 | 0.00 | 66 | 1014.7 |
| 20260505034050 | 64 | 207 | 1.0 | 1.0 | 0.00 | 0.00 | 0.00 | 66 | 1014.8 |
| 20260505033547 | 64 | 199 | 0.0 | 1.0 | 0.00 | 0.00 | 0.00 | 66 | 1014.8 |
| 20260505033046 | 64 | 191 | 1.0 | 1.0 | 0.00 | 0.00 | 0.00 | 66 | 1014.9 |
| 20260505032543 | 64 | 216 | 1.0 | 1.0 | 0.00 | 0.00 | 0.00 | 66 | 1014.8 |
| 20260505032039 | 64 | 198 | 1.0 | 2.0 | 0.00 | 0.00 | 0.00 | 66 | 1014.8 |
| 20260505031537 | 64 | 180 | 2.0 | 2.0 | 0.00 | 0.00 | 0.00 | 65 | 1014.9 |
| 20260505031033 | 65 | 181 | 1.0 | 2.0 | 0.00 | 0.00 | 0.00 | 65 | 1014.7 |
| 20260505030530 | 65 | 208 | 1.0 | 1.0 | 0.00 | 0.00 | 0.00 | 65 | 1014.8 |
| 20260505030026 | 65 | 206 | 2.0 | 2.0 | 0.00 | 0.00 | 0.00 | 65 | 1014.9 |
| 20260505025522 | 65 | 203 | 1.0 | 1.0 | 0.00 | 0.00 | 0.00 | 65 | 1014.7 |
| 20260505025022 | 65 | 155 | 1.0 | 1.0 | 0.00 | 0.00 | 0.00 | 65 | 1014.9 |
| 20260505024518 | 66 | 192 | 0.0 | 0.0 | 0.00 | 0.00 | 0.00 | 64 | 1015.0 |
| 20260505024015 | 66 | 206 | 0.0 | 1.0 | 0.00 | 0.00 | 0.00 | 63 | 1014.7 |
| 20260505023512 | 66 | 207 | 2.0 | 3.0 | 0.00 | 0.00 | 0.00 | 63 | 1014.7 |
| 20260505023010 | 66 | 186 | 1.0 | 2.0 | 0.00 | 0.00 | 0.00 | 64 | 1014.7 |
| 20260505022507 | 66 | 194 | 2.0 | 2.0 | 0.00 | 0.00 | 0.00 | 63 | 1014.6 |
| 20260505022004 | 67 | 206 | 1.0 | 2.0 | 0.00 | 0.00 | 0.00 | 63 | 1014.8 |
| 20260505021500 | 67 | 173 | 2.0 | 3.0 | 0.00 | 0.00 | 0.00 | 63 | 1014.5 |
| 20260505020956 | 67 | 201 | 2.0 | 2.0 | 0.00 | 0.00 | 0.00 | 61 | 1014.7 |
| 20260505020451 | 67 | 235 | 2.0 | 3.0 | 0.00 | 0.00 | 0.00 | 62 | 1014.6 |
| 20260505015948 | 68 | 197 | 1.0 | 1.0 | 0.00 | 0.00 | 0.00 | 62 | 1014.5 |
| 20260505015446 | 68 | 196 | 1.0 | 2.0 | 0.00 | 0.00 | 0.00 | 61 | 1014.6 |
| 20260505014943 | 68 | 205 | 1.0 | 2.0 | 0.00 | 0.00 | 0.00 | 60 | 1014.5 |
| 20260505014440 | 68 | 196 | 1.0 | 1.0 | 0.00 | 0.00 | 0.00 | 59 | 1014.5 |
| 20260505013937 | 68 | 152 | 3.0 | 6.0 | 0.00 | 0.00 | 0.00 | 58 | 1014.3 |
| 20260505013434 | 68 | 181 | 3.0 | 3.0 | 0.00 | 0.00 | 0.00 | 56 | 1014.3 |
| 20260505012931 | 68 | 210 | 2.0 | 3.0 | 0.00 | 0.00 | 0.00 | 54 | 1014.1 |
| 20260505012429 | 68 | 204 | 0.0 | 0.0 | 0.00 | 0.00 | 0.00 | 51 | 1014.0 |
| 20260505011926 | 68 | 189 | 1.0 | 1.0 | 0.00 | 0.00 | 0.00 | 49 | 1014.1 |
| 20260505011422 | 68 | 205 | 1.0 | 1.0 | 0.00 | 0.00 | 0.00 | 48 | 1013.9 |
| 20260505010919 | 68 | 183 | 0.0 | 0.0 | 0.00 | 0.00 | 0.00 | 49 | 1013.8 |
| 20260505010414 | 67 | 193 | 0.0 | 0.0 | 0.00 | 0.00 | 0.00 | 50 | 1013.6 |
| 20260505005910 | 67 | 196 | 0.0 | 0.0 | 0.00 | 0.00 | 0.00 | 49 | 1013.7 |
| 20260505005408 | 68 | 184 | 0.0 | 0.0 | 0.00 | 0.00 | 0.00 | 49 | 1013.6 |
| 20260505004905 | 68 | 184 | 0.0 | 0.0 | 0.00 | 0.00 | 0.00 | 48 | 1013.4 |
| 20260505004402 | 68 | 187 | 0.0 | 0.0 | 0.00 | 0.00 | 0.00 | 48 | 1013.5 |
| 20260505003859 | 68 | 198 | 0.0 | 0.0 | 0.00 | 0.00 | 0.00 | 48 | 1013.5 |
| 20260505003356 | 68 | 192 | 0.0 | 1.0 | 0.00 | 0.00 | 0.00 | 48 | 1013.4 |
| 20260505002852 | 69 | 193 | 0.0 | 0.0 | 0.00 | 0.00 | 0.00 | 47 | 1013.2 |
| 20260505002349 | 69 | 185 | 0.0 | 0.0 | 0.00 | 0.00 | 0.00 | 47 | 1013.2 |
| 20260505001847 | 69 | 186 | 0.0 | 0.0 | 0.00 | 0.00 | 0.00 | 47 | 1013.2 |
| 20260505001344 | 69 | 190 | 0.0 | 0.0 | 0.00 | 0.00 | 0.00 | 46 | 1013.3 |
| 20260505000841 | 70 | 189 | 0.0 | 0.0 | 0.00 | 0.00 | 0.00 | 46 | 1013.3 |
| 20260505000339 | 70 | 198 | 0.0 | 0.0 | 0.00 | 0.00 | 0.00 | 45 | 1013.3 |
| 20260504235835 | 71 | 207 | 0.0 | 0.0 | 0.00 | 0.00 | 0.00 | 44 | 1013.1 |
| 20260504235332 | 71 | 177 | 0.0 | 1.0 | 0.00 | 0.00 | 0.00 | 43 | 1013.2 |
| 20260504234829 | 72 | 192 | 0.0 | 0.0 | 0.00 | 0.00 | 0.00 | 42 | 1013.1 |
| 20260504234327 | 73 | 185 | 0.0 | 1.0 | 0.00 | 0.00 | 0.00 | 42 | 1013.2 |
| 20260504233823 | 73 | 200 | 0.0 | 0.0 | 0.00 | 0.00 | 0.00 | 40 | 1013.1 |
| 20260504233319 | 74 | 187 | 0.0 | 1.0 | 0.00 | 0.00 | 0.00 | 40 | 1012.8 |
| 20260504232815 | 74 | 195 | 0.0 | 1.0 | 0.00 | 0.00 | 0.00 | 39 | 1012.8 |
| 20260504232313 | 75 | 174 | 0.0 | 0.0 | 0.00 | 0.00 | 0.00 | 38 | 1012.8 |
| 20260504231810 | 75 | 213 | 1.0 | 1.0 | 0.00 | 0.00 | 0.00 | 38 | 1012.7 |
| 20260504231306 | 75 | 204 | 0.0 | 1.0 | 0.00 | 0.00 | 0.00 | 37 | 1012.5 |
| 20260504230802 | 76 | 191 | 0.0 | 0.0 | 0.00 | 0.00 | 0.00 | 38 | 1012.8 |
| 20260504230300 | 76 | 130 | 1.0 | 1.0 | 0.00 | 0.00 | 0.00 | 36 | 1012.6 |
| 20260504225759 | 76 | 228 | 1.0 | 1.0 | 0.00 | 0.00 | 0.00 | 37 | 1012.4 |
| 20260504225255 | 76 | 214 | 0.0 | 1.0 | 0.00 | 0.00 | 0.00 | 36 | 1012.6 |
| 20260504224752 | 76 | 234 | 2.0 | 2.0 | 0.00 | 0.00 | 0.00 | 37 | 1012.6 |
| 20260504224249 | 77 | 206 | 1.0 | 1.0 | 0.00 | 0.00 | 0.00 | 36 | 1012.6 |
| 20260504223745 | 77 | 229 | 1.0 | 2.0 | 0.00 | 0.00 | 0.00 | 35 | 1012.6 |
| 20260504223241 | 77 | 221 | 1.0 | 2.0 | 0.00 | 0.00 | 0.00 | 34 | 1012.5 |
| 20260504222738 | 77 | 183 | 0.0 | 0.0 | 0.00 | 0.00 | 0.00 | 35 | 1012.5 |
| 20260504222235 | 77 | 235 | 1.0 | 2.0 | 0.00 | 0.00 | 0.00 | 34 | 1012.4 |
| 20260504221732 | 78 | 187 | 1.0 | 1.0 | 0.00 | 0.00 | 0.00 | 35 | 1012.6 |
| 20260504221229 | 78 | 226 | 1.0 | 1.0 | 0.00 | 0.00 | 0.00 | 32 | 1012.6 |
| 20260504220726 | 78 | 209 | 1.0 | 1.0 | 0.00 | 0.00 | 0.00 | 31 | 1012.3 |
| 20260504220223 | 78 | 207 | 1.0 | 1.0 | 0.00 | 0.00 | 0.00 | 32 | 1012.6 |
| 20260504215720 | 78 | 206 | 1.0 | 1.0 | 0.00 | 0.00 | 0.00 | 31 | 1012.5 |
| 20260504215217 | 78 | 219 | 1.0 | 2.0 | 0.00 | 0.00 | 0.00 | 31 | 1012.7 |
| 20260504214713 | 78 | 218 | 1.0 | 1.0 | 0.00 | 0.00 | 0.00 | 31 | 1012.6 |
| 20260504214209 | 78 | 197 | 1.0 | 1.0 | 0.00 | 0.00 | 0.00 | 34 | 1012.4 |
| 20260504213706 | 78 | 184 | 2.0 | 3.0 | 0.00 | 0.00 | 0.00 | 33 | 1012.6 |
| 20260504213203 | 78 | 200 | 2.0 | 2.0 | 0.00 | 0.00 | 0.00 | 30 | 1012.5 |
| 20260504212700 | 79 | 200 | 0.0 | 1.0 | 0.00 | 0.00 | 0.00 | 31 | 1012.6 |
| 20260504212156 | 79 | 203 | 1.0 | 1.0 | 0.00 | 0.00 | 0.00 | 31 | 1012.7 |
| 20260504211653 | 78 | 207 | 1.0 | 2.0 | 0.00 | 0.00 | 0.00 | 31 | 1012.7 |
| 20260504211149 | 79 | 329 | 2.0 | 3.0 | 0.00 | 0.00 | 0.00 | 30 | 1013.0 |
| 20260504210648 | 79 | 211 | 1.0 | 1.0 | 0.00 | 0.00 | 0.00 | 29 | 1013.0 |
| 20260504210144 | 79 | 203 | 1.0 | 1.0 | 0.00 | 0.00 | 0.00 | 30 | 1012.7 |
| 20260504205641 | 78 | 301 | 1.0 | 1.0 | 0.00 | 0.00 | 0.00 | 28 | 1012.6 |
| 20260504205138 | 79 | 216 | 0.0 | 0.0 | 0.00 | 0.00 | 0.00 | 29 | 1013.1 |
| 20260504204637 | 78 | 322 | 2.0 | 2.0 | 0.00 | 0.00 | 0.00 | 29 | 1013.0 |
| 20260504204136 | 79 | 208 | 0.0 | 1.0 | 0.00 | 0.00 | 0.00 | 29 | 1013.0 |
| 20260504203634 | 79 | 228 | 1.0 | 2.0 | 0.00 | 0.00 | 0.00 | 29 | 1013.1 |
| 20260504203131 | 78 | 204 | 0.0 | 1.0 | 0.00 | 0.00 | 0.00 | 31 | 1013.0 |
| 20260504202626 | 78 | 228 | 2.0 | 2.0 | 0.00 | 0.00 | 0.00 | 30 | 1013.0 |
| 20260504202123 | 79 | 237 | 2.0 | 2.0 | 0.00 | 0.00 | 0.00 | 28 | 1013.2 |
| 20260504201619 | 78 | 199 | 1.0 | 1.0 | 0.00 | 0.00 | 0.00 | 30 | 1013.4 |
| 20260504201117 | 78 | 225 | 2.0 | 2.0 | 0.00 | 0.00 | 0.00 | 28 | 1013.3 |
| 20260504200615 | 78 | 224 | 4.0 | 6.0 | 0.00 | 0.00 | 0.00 | 32 | 1013.4 |
| 20260504200111 | 79 | 231 | 2.0 | 2.0 | 0.00 | 0.00 | 0.00 | 30 | 1013.3 |
| 20260504195607 | 79 | 222 | 1.0 | 1.0 | 0.00 | 0.00 | 0.00 | 31 | 1013.1 |
| 20260504195103 | 79 | 208 | 2.0 | 3.0 | 0.00 | 0.00 | 0.00 | 29 | 1013.4 |
| 20260504194600 | 79 | 196 | 0.0 | 1.0 | 0.00 | 0.00 | 0.00 | 29 | 1013.3 |
| 20260504194055 | 79 | 222 | 1.0 | 1.0 | 0.00 | 0.00 | 0.00 | 29 | 1013.2 |
| 20260504193552 | 79 | 213 | 3.0 | 5.0 | 0.00 | 0.00 | 0.00 | 29 | 1013.3 |
| 20260504193051 | 79 | 213 | 3.0 | 3.0 | 0.00 | 0.00 | 0.00 | 29 | 1013.7 |
| 20260504192549 | 80 | 166 | 1.0 | 2.0 | 0.00 | 0.00 | 0.00 | 29 | 1013.5 |
| 20260504192047 | 79 | 209 | 0.0 | 0.0 | 0.00 | 0.00 | 0.00 | 28 | 1013.5 |
| 20260504191544 | 79 | 210 | 2.0 | 3.0 | 0.00 | 0.00 | 0.00 | 30 | 1013.8 |
| 20260504191040 | 78 | 229 | 1.0 | 1.0 | 0.00 | 0.00 | 0.00 | 31 | 1013.5 |
| 20260504190537 | 78 | 276 | 4.0 | 6.0 | 0.00 | 0.00 | 0.00 | 31 | 1013.6 |
| 20260504190033 | 79 | 339 | 3.0 | 3.0 | 0.00 | 0.00 | 0.00 | 30 | 1013.9 |
| 20260504185530 | 79 | 220 | 1.0 | 1.0 | 0.00 | 0.00 | 0.00 | 30 | 1014.1 |
| 20260504185026 | 79 | 209 | 1.0 | 1.0 | 0.00 | 0.00 | 0.00 | 31 | 1014.3 |
| 20260504184522 | 79 | 226 | 2.0 | 2.0 | 0.00 | 0.00 | 0.00 | 32 | 1014.0 |
| 20260504184017 | 79 | 235 | 1.0 | 2.0 | 0.00 | 0.00 | 0.00 | 30 | 1014.2 |
| 20260504183515 | 78 | 209 | 2.0 | 2.0 | 0.00 | 0.00 | 0.00 | 31 | 1014.4 |
| 20260504183013 | 78 | 352 | 5.0 | 6.0 | 0.00 | 0.00 | 0.00 | 31 | 1014.1 |
| 20260504182509 | 79 | 242 | 1.0 | 1.0 | 0.00 | 0.00 | 0.00 | 32 | 1014.3 |
| 20260504182007 | 78 | 209 | 1.0 | 1.0 | 0.00 | 0.00 | 0.00 | 33 | 1014.4 |
| 20260504181504 | 78 | 240 | 3.0 | 3.0 | 0.00 | 0.00 | 0.00 | 32 | 1014.0 |
| 20260504181003 | 77 | 213 | 1.0 | 1.0 | 0.00 | 0.00 | 0.00 | 33 | 1014.5 |
| 20260504180501 | 77 | 274 | 3.0 | 5.0 | 0.00 | 0.00 | 0.00 | 33 | 1014.4 |
| 20260504175959 | 77 | 236 | 3.0 | 5.0 | 0.00 | 0.00 | 0.00 | 32 | 1014.5 |
| 20260504175456 | 77 | 210 | 3.0 | 3.0 | 0.00 | 0.00 | 0.00 | 35 | 1014.6 |
| 20260504174953 | 76 | 180 | 0.0 | 1.0 | 0.00 | 0.00 | 0.00 | 34 | 1014.5 |
| 20260504174450 | 77 | 218 | 3.0 | 3.0 | 0.00 | 0.00 | 0.00 | 35 | 1014.6 |
| 20260504173948 | 76 | 225 | 1.0 | 2.0 | 0.00 | 0.00 | 0.00 | 33 | 1014.7 |
| 20260504173444 | 76 | 241 | 3.0 | 3.0 | 0.00 | 0.00 | 0.00 | 33 | 1014.9 |
| 20260504172942 | 77 | 261 | 2.0 | 3.0 | 0.00 | 0.00 | 0.00 | 35 | 1014.6 |
| 20260504172437 | 75 | 285 | 6.0 | 8.0 | 0.00 | 0.00 | 0.00 | 34 | 1015.0 |
| 20260504171934 | 76 | 54 | 2.0 | 2.0 | 0.00 | 0.00 | 0.00 | 33 | 1014.8 |
| 20260504171431 | 75 | 201 | 1.0 | 1.0 | 0.00 | 0.00 | 0.00 | 37 | 1015.2 |
| 20260504170928 | 75 | 224 | 3.0 | 5.0 | 0.00 | 0.00 | 0.00 | 37 | 1015.2 |
| 20260504170424 | 74 | 210 | 2.0 | 2.0 | 0.00 | 0.00 | 0.00 | 37 | 1015.1 |
| 20260504160343 | 73 | 301 | 3.0 | 5.0 | 0.00 | 0.00 | 0.00 | 46 | 1016.0 |
| 20260504150808 | 70 | 252 | 3.0 | 5.0 | 0.00 | 0.00 | 0.00 | 52 | 1016.2 |
| 20260504150305 | 70 | 206 | 0.0 | 1.0 | 0.00 | 0.00 | 0.00 | 52 | 1016.0 |
| 20260504141235 | 66 | 207 | 1.0 | 1.0 | 0.00 | 0.00 | 0.00 | 58 | 1016.4 |
| 20260504140731 | 66 | 207 | 1.0 | 2.0 | 0.00 | 0.00 | 0.00 | 57 | 1016.5 |
| 20260504140227 | 66 | 214 | 1.0 | 1.0 | 0.00 | 0.00 | 0.00 | 62 | 1016.4 |
| 20260504130656 | 62 | 223 | 2.0 | 2.0 | 0.00 | 0.00 | 0.00 | 69 | 1016.4 |
| 20260504130152 | 62 | 222 | 2.0 | 2.0 | 0.00 | 0.00 | 0.00 | 72 | 1016.5 |